Satellite-Ground Cal/Val Region Overpasses Predictions

Prediction of Satellite NPP Overpassing Cal/Val Region: PacNW

Region Location: (Latitude: 10.00, Longitude: 139.50) to (Latitude: 22.70, Longitude: 165.60).

Table of predicted overpasses for the next 14.0 days since TLE Epoch: 1/23/2015
Interval Starting Time Starting Location Ending Time Ending Location
1 01/24/2015 03:43:15 ( 10.03, 145.62) 01/24/2015 03:46:50 ( 22.66, 142.63)
2 01/24/2015 14:36:44 ( 11.71, 165.59) 01/24/2015 14:37:13 ( 10.00, 165.20)
3 01/24/2015 16:15:07 ( 22.67, 142.83) 01/24/2015 16:18:42 ( 10.05, 139.84)
4 01/25/2015 03:24:10 ( 10.01, 150.39) 01/25/2015 03:27:46 ( 22.69, 147.38)
5 01/25/2015 15:56:02 ( 22.70, 147.60) 01/25/2015 15:59:38 ( 10.01, 144.60)
6 01/26/2015 03:05:07 ( 10.04, 155.14) 01/26/2015 03:08:42 ( 22.66, 152.15)
7 01/26/2015 15:36:59 ( 22.66, 152.35) 01/26/2015 15:40:34 ( 10.04, 149.36)
8 01/27/2015 02:46:02 ( 10.02, 159.91) 01/27/2015 02:49:38 ( 22.70, 156.91)
9 01/27/2015 15:17:54 ( 22.69, 157.12) 01/27/2015 15:21:30 ( 10.00, 154.12)
10 01/28/2015 02:26:59 ( 10.05, 164.67) 01/28/2015 02:30:34 ( 22.67, 161.67)
11 01/28/2015 14:58:51 ( 22.65, 161.88) 01/28/2015 15:02:26 ( 10.03, 158.88)
12 01/29/2015 03:49:25 ( 10.04, 144.06) 01/29/2015 03:53:00 ( 22.67, 141.06)
13 01/29/2015 14:40:59 ( 18.39, 165.60) 01/29/2015 14:43:21 ( 10.05, 163.65)
14 01/29/2015 16:21:16 ( 22.66, 141.27) 01/29/2015 16:23:20 ( 15.38, 139.51)
15 01/30/2015 03:30:20 ( 10.02, 148.82) 01/30/2015 03:33:55 ( 22.64, 145.83)
16 01/30/2015 16:02:12 ( 22.68, 146.03) 01/30/2015 16:05:47 ( 10.06, 143.04)
17 01/31/2015 03:11:17 ( 10.06, 153.58) 01/31/2015 03:14:52 ( 22.68, 150.58)
18 01/31/2015 15:43:08 ( 22.64, 150.79) 01/31/2015 15:46:43 ( 10.02, 147.79)
19 02/01/2015 02:52:12 ( 10.04, 158.34) 02/01/2015 02:55:47 ( 22.66, 155.35)
20 02/01/2015 15:24:04 ( 22.66, 155.55) 02/01/2015 15:27:39 ( 10.04, 152.56)
21 02/02/2015 02:33:08 ( 10.02, 163.11) 02/02/2015 02:36:44 ( 22.70, 160.10)
22 02/02/2015 15:04:59 ( 22.68, 160.32) 02/02/2015 15:08:34 ( 10.06, 157.33)
23 02/03/2015 02:16:49 ( 19.75, 165.59) 02/03/2015 02:17:39 ( 22.68, 164.87)
24 02/03/2015 03:55:33 ( 10.01, 142.50) 02/03/2015 03:59:08 ( 22.64, 139.51)
25 02/03/2015 14:45:56 ( 22.64, 165.07) 02/03/2015 14:49:31 ( 10.02, 162.08)
26 02/03/2015 16:27:25 ( 22.69, 139.71) 02/03/2015 16:27:39 ( 21.86, 139.51)
27 02/04/2015 03:36:30 ( 10.05, 147.25) 02/04/2015 03:40:05 ( 22.68, 144.26)
28 02/04/2015 16:08:21 ( 22.64, 144.46) 02/04/2015 16:11:56 ( 10.02, 141.47)
29 02/05/2015 03:17:25 ( 10.04, 152.02) 02/05/2015 03:21:00 ( 22.66, 149.03)
30 02/05/2015 15:49:17 ( 22.66, 149.23) 02/05/2015 15:52:52 ( 10.04, 146.24)
31 02/06/2015 02:58:21 ( 10.02, 156.78) 02/06/2015 03:01:56 ( 22.65, 153.79)


NCC Satellite Cal/Val Overpasses Prediction Service
